Tracking 31027 objects as of 19-Jul-2025
HD Live streaming from Space Station
objects crossing your sky now

STARLINK-32891

Track STARLINK-32891 now!
10-day predictions
STARLINK-32891 is classified as:


NORAD ID: 62927
Int'l Code: 2025-027W
Perigee: 489.7 km
Apogee: 490.6 km
Inclination: 43.0 °
Period: 94.3 minutes
Semi major axis: 6861 km
RCS: Unknown
Launch date: February 8, 2025
Source: United States (US)
Launch site: AIR FORCE EASTERN TEST RANGE (AFETR)
Your satellite tracking list
STARLINK-5403
Track 1 satellite(s)




NASA's NSSDC Master Catalog

Two Line Element Set (TLE):
1 62927U 25027W   25199.50240826  .00022233  00000-0  81490-3 0  9992
2 62927  42.9991  11.6737 0000644 250.1230 109.9552 15.27584334 25846
Source of the keplerian elements: AFSPC